Home > Weather > Prenzlau > Past weeks

Flag for Germany Weather for the Past 2 Weeks in Prenzlau, Brandenburg, Germany

Now
57 °F

Passing clouds.


Feels Like: 55 °F
Forecast: 40 / 65 °F
Wind: 9 mph from Northeast

Location: Szczecin Airport

Current Time: May 1, 2016 at 8:35:33 PM

Latest Report: May 1, 2016 at 8:00 PM


Visibility: N/A

Pressure: 30.27 "Hg

Humidity: 44%

Dew Point: 36 °F

Location of PrenzlauLocation

Historic Weather in Prenzlau — Graph

°F

Prenzlau Temperature Yesterday

Maximum temperature yesterday: 63 °F (at 3:00 PM)
Minimum temperature yesterday: 45 °F (at 4:30 AM)
Average temperature yesterday: 53 °F

High & Low Weather Summary for the Past Weeks

 TemperatureHumidityPressure
High63 °F (Apr 30, 3:00 PM)100% (Apr 24, 1:00 AM)30.30 "Hg (Apr 24, 1:00 AM)
Low28 °F (Apr 25, 12:30 AM)25% (May 1, 5:00 PM)29.47 "Hg (Apr 26, 6:30 PM)
Average45 °F68%29.91 "Hg
* Reported Apr 16 7:00 PM — May 1 7:30 PM, Prenzlau, Weather by CustomWeather, © 2016

Note: Actual official high and low records may vary slightly from our data, if they occured in-between our weather recording intervals... More about our weather records

Advertising

Prenzlau Weather History for the Previous 24 Hours

Scroll right to see more
 ConditionsComfort  
Time TempWeatherWind HumidityBarometerVisibility
7:30 PM
Sun, May 1
59 °FPassing clouds.12 mph42%30.27 "HgN/A
7:00 PM59 °FPassing clouds.13 mph42%30.24 "HgN/A
6:30 PM61 °FPassing clouds.10 mph39%30.24 "HgN/A
6:00 PM63 °FPassing clouds.10 mph32%30.24 "HgN/A
5:30 PM63 °FPassing clouds.10 mph27%30.24 "HgN/A
5:00 PM63 °FPassing clouds.12 mph25%30.24 "HgN/A
4:30 PM63 °FPassing clouds.13 mph27%30.24 "HgN/A
4:00 PM63 °FPassing clouds.13 mph27%30.24 "HgN/A
3:30 PM63 °FPassing clouds.12 mph32%30.21 "HgN/A
3:00 PM63 °FPassing clouds.13 mph34%30.21 "HgN/A
2:30 PM63 °FPassing clouds.12 mph34%30.24 "HgN/A
2:00 PM63 °FPassing clouds.12 mph34%30.24 "HgN/A
1:30 PM63 °FPassing clouds.9 mph37%30.24 "HgN/A
1:00 PM61 °FPassing clouds.12 mph39%30.24 "HgN/A
12:30 PM61 °FPassing clouds.10 mph36%30.24 "HgN/A
12:00 PM61 °FPassing clouds.12 mph34%30.24 "HgN/A
11:30 AM63 °FSunny.7 mph32%30.24 "Hg10 mi
11:00 AM59 °FPassing clouds.7 mph45%30.24 "HgN/A
10:30 AM59 °FPassing clouds.8 mph48%30.24 "HgN/A
10:00 AM59 °FPassing clouds.5 mph48%30.24 "HgN/A
9:30 AM57 °FSunny.2 mph55%30.24 "Hg10 mi
9:00 AM55 °FSunny.1 mph55%30.24 "Hg10 mi
8:30 AM54 °FSunny.1 mph58%30.24 "Hg10 mi
8:00 AM50 °FSunny.3 mph62%30.21 "Hg10 mi
7:30 AM50 °FSunny.1 mph67%30.21 "Hg10 mi
6:30 AM39 °FSunny.5 mph81%30.21 "Hg10 mi
6:00 AM37 °FClear.3 mph81%30.18 "Hg10 mi
5:00 AM39 °FClear.2 mph75%30.18 "Hg10 mi
4:30 AM39 °FClear.5 mph75%30.18 "Hg10 mi
4:00 AM41 °FClear.5 mph70%30.18 "Hg10 mi
3:30 AM43 °FClear.6 mph61%30.18 "Hg10 mi
3:00 AM45 °FClear.5 mph57%30.15 "Hg10 mi
2:30 AM45 °FPassing clouds.5 mph57%30.15 "HgN/A
2:00 AM45 °FClear.7 mph57%30.15 "Hg10 mi
1:30 AM46 °FClear.6 mph53%30.15 "Hg10 mi
1:00 AM45 °FClear.7 mph61%30.15 "Hg10 mi
12:30 AM45 °FClear.6 mph61%30.15 "Hg10 mi
12:00 AM48 °FClear.6 mph50%30.15 "Hg10 mi
11:30 PM
Sat, Apr 30
46 °FClear.5 mph57%30.12 "Hg10 mi
11:00 PM48 °FClear.5 mph58%30.12 "Hg10 mi
10:30 PM48 °FClear.7 mph58%30.12 "Hg10 mi
10:00 PM50 °FClear.5 mph58%30.12 "Hg10 mi
9:30 PM50 °FClear.5 mph58%30.12 "Hg10 mi
9:00 PM52 °FSunny.3 mph54%30.12 "Hg10 mi
8:30 PM57 °FSunny.5 mph41%30.09 "Hg10 mi
8:00 PM57 °FSunny.6 mph41%30.09 "Hg10 mi
Weather by CustomWeather, © 2016

See weather overviewHow to use our weather pages